Lid_Strength_Index
-1 -1 -1 -1 -1 -2 -1 -1 -1 -1 -1 -1 -1 -1 -1 -1 -1 -1 -1 -2 -2 -1 -1 -1 -1 -1 -1 -2 -2 -2 -2 -2 -1 -1 -1 -2 -2 -2 -1 -1 -1 -1 -2
-2 -1 -1 -1 -1 -1 -2 -1 -1 -0 -0 -1 -1 -1 -1 -1 -1 -1 -1 -1 -3 -2 -2 -1 -1 -1 -1 -1 -2 -2 -2 -2 -2 -1 -2 -2 -2 -1 -1 -1 -1 -1 -1
-3 -1 -0 -1 -1 -2 -2 -2 -1 -1 -0 -1 -0 -1 -1 -1 -1 -1 -1 -1 -1 -3 -3 -2 -2 -2 -2 -2 -2 -2 -2 -2 -2 -2 -2 -2 -2 -1 -1 -1 -1 -1 -2
-3 -2 -1 -0 -2 -2 -1 -0 -0 0 0 0 0 0 -0 -1 -1 -1 -1 -1 -1 -1 -2 -3 -3 -3 -3 -1 -2 -3 -2 -2 -2 -2 -2 -2 -2 -1 -1 -1 -1 -1 -1
-3 -1 -1 -2 -2 -0 -0 -0 0 -0 1 1 0 0 -0 -0 -0 -1 -1 -1 -1 -1 -1 -2 -2 -3 -3 -2 -3 -3 -2 -2 -2 -2 -2 -2 -2 -1 -1 -1 -1 -1 -1
-3 -2 -1 -1 -1 -0 0 -0 0 0 0 1 1 1 0 -0 -0 -0 -0 -1 -1 -1 -1 -2 -1 -1 -2 -3 -3 -3 -3 -2 -2 -2 -2 -2 -2 -2 -1 -1 -1 -1 -1
-3 -2 -1 -1 -1 0 -0 -0 0 1 1 -0 1 1 1 0 0 0 -0 -0 -0 -1 -1 -1 -1 -1 -1 -3 -3 -4 -3 -3 -2 -2 -2 -1 -2 -2 -1 -1 -1 -1 -1
-3 -2 -2 -0 -0 -0 -0 -0 0 1 1 0 2 3 4 2 1 0 -0 0 -0 -1 -1 -1 -1 -1 -1 -1 -2 -2 -3 -3 -2 -2 -2 -1 -1 -2 -1 -2 -2 -1 -1
-2 -1 -2 -1 -1 -0 0 -0 0 1 2 1 -0 2 5 5 3 1 1 0 0 0 -0 -1 -1 -1 -1 -1 -2 -2 -2 -2 -2 -2 -2 -2 -1 -1 -2 -2 -2 -1 -1
-1 -2 -2 -2 -1 -0 -0 -0 -0 0 1 2 1 0 1 2 5 5 2 1 0 1 0 -0 -0 -1 -1 -1 -2 -2 -2 -2 -2 -3 -3 -2 -2 -1 -1 -1 -2 -1 -1
-2 -1 -2 -2 -1 -1 -1 -0 0 0 0 1 2 2 1 2 2 4 5 3 1 0 0 -0 -0 -0 1 1 -1 -2 -2 -1 -1 -1 -2 -3 -3 -2 -1 -2 -1 -2 -1
-0 -1 -1 -2 -2 -1 -0 -1 -0 -0 0 0 1 1 2 3 3 3 4 3 3 2 0 1 1 1 -0 -0 0 -3 -2 -1 -0 -0 -1 -1 -1 -2 -1 -1 -1 -1 -1
1 -0 -1 -1 -1 -2 -1 -1 -1 -0 0 1 1 1 1 2 1 2 3 4 4 2 1 0 0 -0 -0 -1 -1 -2 -2 -0 -0 0 -0 0 -1 -2 -2 -1 -1 -1 -1
0 -1 -1 -1 -1 -2 -1 -2 -1 -0 -0 0 0 0 1 1 1 1 2 3 4 3 3 3 -0 1 0 -1 -2 -2 -1 0 0 0 0 1 0 -1 -2 -2 -2 -1 -1
0 -0 -1 -0 -1 -1 -1 -1 -0 0 0 0 0 0 1 0 0 0 1 1 3 5 4 2 2 1 -1 -2 -2 -1 -1 -0 -0 -1 -1 -0 -0 -1 -2 -1 -1 -1 -1
-0 1 1 -1 -1 -0 -0 -1 -0 -0 -0 -0 0 0 -0 0 0 0 1 1 1 3 4 2 1 0 -1 -0 -2 -1 -1 -0 1 1 -0 -1 -1 -1 -1 -1 -0 0 0
-0 0 -0 -1 -1 -0 -0 -1 -0 -0 0 0 -0 0 0 -0 0 0 0 1 1 1 3 2 1 0 0 0 -0 -1 -1 -1 -1 -0 -1 0 -1 -1 -0 0 1 1 1
-0 -1 -1 -0 -0 -0 -1 -0 0 0 1 1 0 0 0 0 0 0 1 1 1 1 2 3 2 1 1 0 0 0 -0 -1 -1 0 1 -0 -0 1 1 2 2 3 3
-0 -0 -0 -0 -0 -0 0 -0 -0 0 0 1 0 0 1 0 0 1 1 1 1 1 1 2 2 1 1 0 1 0 0 0 -1 -1 0 1 1 2 2 3 3 4 5
-0 -0 -0 -0 -0 -0 0 -0 0 -0 0 0 0 -0 0 1 0 1 1 1 1 1 1 2 2 2 1 0 1 2 2 1 1 -0 -0 1 1 2 2 3 4 3 5
-0 -0 -0 -0 -1 1 3 3 0 -0 0 0 0 0 -0 -0 0 0 0 1 1 1 2 2 3 2 2 2 2 1 2 1 1 0 0 0 -0 -0 -0 1 1 2 3
-0 -1 -0 -0 -0 4 6 5 3 0 -0 0 1 0 -0 -0 1 2 2 2 1 1 2 2 2 3 2 2 1 2 2 2 4 -0 1 1 -0 1 -0 -0 1 1 3
-0 -0 -0 0 2 5 8 7 5 1 0 0 0 0 -0 3 5 3 2 2 3 4 3 1 2 2 2 1 1 2 2 2 2 1 1 2 0 1 -0 0 3 3 2
1 1 1 1 2 7 9 8 6 1 -0 -0 0 0 2 5 7 6 2 1 0 0 -0 0 0 0 0 -0 -0 1 1 1 1 0 0 3 1 1 0 -0 3 3 4
1 2 2 3 3 7 10 9 6 -0 1 3 3 5 3 4 7 7 0 1 1 1 3 2 1 3 4 5 4 1 2 2 3 2 0 2 1 2 1 1 -0 2 5
2 3 4 6 6 7 10 9 6 0 1 2 3 5 7 6 8 7 2 2 3 3 4 3 1 0 1 1 3 -0 1 2 3 3 1 2 2 2 3 1 0 -0 -0